Location: Dąbrowa Miętka
(51.3714°N, 18.6370°E)
Time: 12:41:23
(UTC+01:00)

ISS - Pass Details

Date: 30 January 2019
Orbit: 403 x 411 km, 51.6° (Epoch: 23 February)

Event Time Altitude Azimuth Distance (km) Brightness Sun altitude
Rises 17:23:29 0° 250° (WSW) 2,329 2.6 -8.3°
Reaches altitude 10° 17:25:33 10° 248° (WSW) 1,472 0.7 -8.7°
Maximum altitude 17:28:51 71° 164° (SSE) 438 -3.7 -9.1°
Enters shadow 17:31:37 14° 81° (E) 1,267 -2.0 -9.6°
